Regional Weather Roundup
Issued by NWS Upton, NY

Current Version | Previous Version | Graphics & Text | Print | Product List | Glossary Off
Versions: 1 2 3 4 5 6 7 8 9 10 11 12 13 14 15 16 17 18 19 20 21 22 23 24 25 26 27 28

000
ASUS41 KOKX 190605
RWROKX

REGIONAL WEATHER ROUNDUP
NATIONAL WEATHER SERVICE NEW YORK NY
200 AM EDT SAT APR 19 2014

NOTE: "FAIR" INDICATES FEW OR NO CLOUDS BELOW 12,000 FEET WITH NO
SIGNIFICANT WEATHER AND/OR OBSTRUCTIONS TO VISIBILITY.

NYZ071-072-176-178-NJZ106-104-190700-
NEW YORK CITY METRO AREA


CITY           SKY/WX    TMP DP  RH WIND       PRES   REMARKS
CENTRAL PARK   FAIR      42  32  67 CALM      30.28F
LAGUARDIA APRT MOCLDY    42  32  67 S7        30.26F
KENNEDY INTL   CLOUDY    40  35  83 W9        30.28F WCI  34
NEWARK/LIBERTY CLOUDY    40  32  73 S3        30.27F
TETERBORO      FAIR      42  32  67 S7        30.25F
$$

NYZ177-179-078>081-190700-
LONG ISLAND NEW YORK

CITY           SKY/WX    TMP DP  RH WIND       PRES   REMARKS
FARMINGDALE    FAIR      39  35  86 W5        30.27S
ISLIP          FAIR      38  34  85 SW5       30.24F WCI  34
SHIRLEY        FAIR      36  33  89 CALM      30.27F
WESTHAMPTON    FAIR      32  27  81 CALM      30.27F
MONTAUK POINT    N/A     40  36  86 SW6       30.26F
$$

NYZ052-065-067-190700-
HUDSON VALLEY

CITY           SKY/WX    TMP DP  RH WIND       PRES   REMARKS
WHITE PLAINS   FAIR      38  33  82 CALM      30.23F
NEWBURGH       PTCLDY    43  32  65 W6        30.23F
MONTGOMERY     FAIR      37  30  75 SW5       30.22S WCI  33
POUGHKEEPSIE   FAIR      39  31  72 SE6       30.22S WCI  35
ALBANY         MOCLDY    43  27  53 S3        30.20F
$$

NJZ001-105-106-008-010-013-015-019>022-104-190700-
NEW JERSEY

CITY           SKY/WX    TMP DP  RH WIND       PRES   REMARKS
NEWARK/LIBERTY CLOUDY    40  32  73 S3        30.27F
TETERBORO      FAIR      42  32  67 S7        30.25F
CALDWELL       FAIR      40  32  73 SW3       30.26F
MORRISTOWN     FAIR      41  34  75 S3        30.25F
SOMERVILLE     FAIR      37  32  82 CALM      30.25S
LINDEN         FAIR      42  34  73 NW3       30.29S
SUSSEX         FAIR      40  32  73 CALM      30.23F
ANDOVER          N/A     40  33  76 CALM      30.24F
TRENTON        FAIR      39  34  82 CALM      30.26F
MILLVILLE      FAIR      38  36  92 CALM      30.27F
ATLANTIC CITY  FAIR      39  35  86 CALM      30.27S
WRIGHTSTOWN    FAIR      37  34  90 SW3       30.24F
TOMS RIVER     FAIR      34  30  86 S3        30.27F
BELMAR         FAIR      37  30  75 CALM      30.25F
$$

PAZ047>061-062-071-190700-
EASTERN PENNSYLVANIA

CITY           SKY/WX    TMP DP  RH WIND       PRES   REMARKS
PHILADELPHIA   CLOUDY    44  37  76 S8        30.28S
ALLENTOWN      FAIR      43  33  68 CALM      30.26S
SCRANTON       FAIR      43  31  62 SW8       30.23S
$$

CTZ002-004>006-009-010-012-RIZ004-006-007-MAZ004-011-015-190700-
SOUTHERN NEW ENGLAND
 IN CT

CITY           SKY/WX    TMP DP  RH WIND       PRES   REMARKS
BRADLEY INTL   CLOUDY    41  31  67 S8        30.21F
HARTFORD       FAIR      41  32  70 S8        30.23F
DANBURY        FAIR      39  31  72 W5        30.24F
WTRBRY/OXFORD  FAIR      37  28  70 SW5       30.24F WCI  34
BRIDGEPORT     FAIR      42  36  79 SW10      30.25F
MERIDEN        FAIR      40  34  79 S5        30.24F
NEW HAVEN      FAIR      42  36  79 SW9       30.25F
CHESTER        FAIR      37  36  93 SW5       30.24F WCI  34
GROTON         FAIR      39  37  92 W5        30.24F
WILLIMANTIC    FAIR      36  32  85 S5        30.22F WCI  32

 IN RI

CITY           SKY/WX    TMP DP  RH WIND       PRES   REMARKS
PROVIDENCE     FAIR      37  33  85 SW6       30.23F WCI  32
BLOCK ISLAND   FAIR      39  34  81 W7        30.25R WCI  34
WESTERLY       FAIR      39  37  92 W3        30.25S

 IN MA

CITY           SKY/WX    TMP DP  RH WIND       PRES   REMARKS
BOSTON         MOCLDY    37  33  85 S3        30.22F
WORCESTER      FAIR      37  30  75 W7        30.18F WCI  32
WESTFIELD      FAIR      37  30  75 S3        30.20F
PROVINCETOWN   FAIR      30  30 100 MISG      30.23F
NANTUCKET      FAIR      38  34  85 CALM      30.21F
$$

ANZ330-335-338-340-345-350-353-355-190700-
COASTAL MARINE OBSERVATIONS


STATION/POSITION TIME  SKY/WX   TEMP    WIND        PRES    VSBY  WAVE
                                AIR SEA DIR/SP/G                  HT/PER
                 (UTC)          (F)     (DEG/KT/KT) (MB)    (MI)  (FT/S)
NY HARB ENTRANCE 0600            41 43  120/  8/ 10 1024.8
4S FIRE IS       0500               44                N/A           5/11
23SW MTP         0600            40 42  260/  8/ 10 1024.2          5/11
HUDSON CANYON    0500            41 44  270/  2/  4 1025.2          8/10
EXECUTION ROCKS  0600            42 42  220/  8/ 12   N/A
WESTERN LI SOUND 0600            41     210/  8/ 10   N/A           0
CENTRAL LI SOUND 0500            40 42  240/ 10/ 12   N/A           1
EASTERN LI SOUND NOT AVBL
ROBBINS REEF     0600            40     250/  6/  7   N/A
$$


>>>>>>>>>>>>>>>>>>>>>>>>>>>> KEY <<<<<<<<<<<<<<<<<<<<<<<<<<<
>                                                          <
>     SKY/WX - SKY CONDITION/PRESENT WEATHER               <
>     TMP    - TEMPERATURE IN FAHRENHEIT                   <
>     DP     - DEWPOINT IN FAHRENHEIT                      <
>     RH     - RELATIVE HUMIDITY IN PERCENT                <
>     WIND   - DIRECTION AND SPEED IN MPH                  <
>     PRES   - MEAN SEA LEVEL PRESSURE IN INCHES OF HG     <
>     WCI    - WIND CHILL INDEX                            <
>     VSB    - VISIBILITY IN MILES                         <
>     HX     - HEAT INDEX                                  <
>     TC     - TEMPERATURE IN CELSIUS                      <
>     VRB    - VARIABLE WIND DIRECTION                     <
>                                                          <
>>>>>>>>>>>>>>>>>>>>>>>>>>>> KEY <<<<<<<<<<<<<<<<<<<<<<<<<<<





USA.gov is the U.S. government's official web portal to all federal, state and local government web resources and services.